| time (UTC) | temp F | wind direction | speed MPH | gust MPH | rain 1hr in | rain 24hr in | rain mn in | humidity % | barometer mb |
| 20260508080101 | 48 | 39 | 2.0 | 6.0 | 0.00 | 0.00 | 0.00 | 1 | 1012.9 |
| 20260508074557 | 47 | 39 | 2.0 | 6.0 | 0.00 | 0.00 | 0.00 | 1 | 1012.9 |
| 20260508073053 | 47 | 49 | 4.0 | 8.0 | 0.00 | 0.00 | 0.00 | 1 | 1012.9 |
| 20260508071549 | 46 | 37 | 1.0 | 4.0 | 0.00 | 0.00 | 0.00 | 1 | 1012.7 |
| 20260508070046 | 46 | 8 | 0.0 | 2.0 | 0.00 | 0.00 | 0.00 | 1 | 1012.7 |
| 20260508064538 | 45 | 22 | 2.0 | 5.0 | 0.00 | 0.00 | 0.00 | 1 | 1012.6 |
| 20260508063033 | 45 | 36 | 1.0 | 5.0 | 0.00 | 0.00 | 0.00 | 1 | 1012.5 |
| 20260508061530 | 45 | 28 | 3.0 | 8.0 | 0.00 | 0.00 | 0.00 | 1 | 1012.5 |
| 20260508060028 | 44 | 49 | 2.0 | 4.0 | 0.00 | 0.00 | 0.00 | 1 | 1012.3 |
| 20260508054523 | 43 | 26 | 2.0 | 4.0 | 0.00 | 0.00 | 0.00 | 1 | 1012.2 |
| 20260508053017 | 43 | 22 | 1.0 | 5.0 | 0.00 | 0.00 | 0.00 | 1 | 1012.1 |
| 20260508051521 | 43 | 49 | 5.0 | 9.0 | 0.00 | 0.00 | 0.00 | 1 | 1012.0 |
| 20260508050010 | 43 | 355 | 2.0 | 5.0 | 0.00 | 0.00 | 0.00 | 1 | 1011.8 |
| 20260508044504 | 43 | 338 | 0.0 | 3.0 | 0.00 | 0.00 | 0.00 | 1 | 1011.9 |
| 20260508043113 | 43 | 17 | 0.0 | 3.0 | 0.00 | 0.00 | 0.00 | 1 | 1012.0 |
| 20260508041557 | 43 | 347 | 0.0 | 3.0 | 0.00 | 0.00 | 0.00 | 1 | 1012.0 |
| 20260508040056 | 44 | 19 | 1.0 | 3.0 | 0.00 | 0.00 | 0.00 | 1 | 1012.0 |
| 20260508034553 | 44 | 65 | 2.0 | 5.0 | 0.00 | 0.00 | 0.00 | 1 | 1011.9 |
| 20260508033042 | 44 | 67 | 0.0 | 3.0 | 0.00 | 0.00 | 0.00 | 1 | 1011.9 |
| 20260508031537 | 44 | 67 | 0.0 | 3.0 | 0.00 | 0.00 | 0.00 | 1 | 1011.9 |
| 20260508030042 | 44 | 67 | 0.0 | 2.0 | 0.00 | 0.00 | 0.00 | 1 | 1011.9 |
| 20260508024535 | 44 | 67 | 0.0 | 3.0 | 0.00 | 0.00 | 0.00 | 1 | 1011.8 |
| 20260508023026 | 44 | 87 | 1.0 | 4.0 | 0.00 | 0.00 | 0.00 | 1 | 1011.8 |
| 20260508021520 | 44 | 136 | 0.0 | 3.0 | 0.00 | 0.00 | 0.00 | 1 | 1011.8 |
| 20260508020016 | 44 | 137 | 0.0 | 1.0 | 0.00 | 0.00 | 0.00 | 1 | 1011.8 |
| 20260508014512 | 44 | 137 | 1.0 | 3.0 | 0.00 | 0.00 | 0.00 | 1 | 1011.7 |
| 20260508013007 | 44 | 164 | 0.0 | 0.0 | 0.00 | 0.00 | 0.00 | 1 | 1011.7 |
| 20260508011504 | 44 | 165 | 0.0 | 0.0 | 0.00 | 0.00 | 0.00 | 1 | 1011.7 |
| 20260508010059 | 45 | 164 | 0.0 | 0.0 | 0.00 | 0.00 | 0.00 | 1 | 1011.8 |
| 20260508004557 | 45 | 164 | 0.0 | 0.0 | 0.00 | 0.00 | 0.00 | 1 | 1011.9 |
| 20260508003050 | 45 | 164 | 0.0 | 0.0 | 0.00 | 0.00 | 0.00 | 1 | 1012.0 |
| 20260508001546 | 45 | 164 | 1.0 | 2.0 | 0.00 | 0.00 | 0.00 | 1 | 1012.1 |
| 20260508000041 | 46 | 164 | 0.0 | 2.0 | 0.00 | 0.00 | 0.00 | 1 | 1012.1 |
| 20260507234538 | 46 | 164 | 0.0 | 1.0 | 0.00 | 0.00 | 0.00 | 1 | 1012.1 |
| 20260507233034 | 46 | 164 | 0.0 | 0.0 | 0.00 | 0.00 | 0.00 | 1 | 1012.1 |
| 20260507231538 | 47 | 164 | 0.0 | 0.0 | 0.00 | 0.00 | 0.00 | 1 | 1012.1 |
| 20260507230024 | 47 | 164 | 0.0 | 1.0 | 0.00 | 0.00 | 0.00 | 1 | 1012.1 |
| 20260507224522 | 47 | 164 | 0.0 | 2.0 | 0.00 | 0.00 | 0.00 | 1 | 1011.9 |
| 20260507223016 | 48 | 186 | 0.0 | 1.0 | 0.00 | 0.00 | 0.00 | 1 | 1011.9 |
| 20260507221515 | 48 | 186 | 0.0 | 2.0 | 0.00 | 0.00 | 0.00 | 2 | 1012.0 |
| 20260507220007 | 49 | 186 | 1.0 | 3.0 | 0.00 | 0.00 | 0.00 | 6 | 1011.8 |
| 20260507214503 | 49 | 176 | 1.0 | 4.0 | 0.00 | 0.00 | 0.00 | 15 | 1011.8 |
| 20260507213103 | 49 | 174 | 3.0 | 5.0 | 0.00 | 0.00 | 0.00 | 19 | 1011.7 |
| 20260507211554 | 50 | 186 | 3.0 | 6.0 | 0.00 | 0.00 | 0.00 | 27 | 1011.7 |
| 20260507210052 | 51 | 159 | 3.0 | 5.0 | 0.00 | 0.00 | 0.00 | 30 | 1011.6 |
| 20260507204546 | 51 | 162 | 3.0 | 4.0 | 0.00 | 0.00 | 0.00 | 30 | 1011.5 |
| 20260507203048 | 51 | 176 | 2.0 | 5.0 | 0.00 | 0.00 | 0.00 | 36 | 1011.4 |
| 20260507201539 | 52 | 164 | 3.0 | 6.0 | 0.00 | 0.00 | 0.00 | 43 | 1011.1 |
| 20260507200044 | 52 | 171 | 3.0 | 10.0 | 0.00 | 0.00 | 0.00 | 47 | 1011.0 |
| 20260507194529 | 53 | 218 | 3.0 | 10.0 | 0.00 | 0.00 | 0.00 | 49 | 1011.0 |
| 20260507193024 | 53 | 158 | 6.0 | 10.0 | 0.00 | 0.00 | 0.00 | 51 | 1010.9 |
| 20260507191520 | 53 | 171 | 4.0 | 11.0 | 0.00 | 0.00 | 0.00 | 54 | 1010.8 |
| 20260507190016 | 53 | 208 | 4.0 | 11.0 | 0.00 | 0.00 | 0.00 | 56 | 1010.8 |
| 20260507184511 | 53 | 291 | 6.0 | 13.0 | 0.00 | 0.00 | 0.00 | 58 | 1010.7 |
| 20260507183022 | 54 | 208 | 9.0 | 16.0 | 0.00 | 0.00 | 0.00 | 58 | 1010.7 |
| 20260507181502 | 54 | 181 | 7.0 | 14.0 | 0.00 | 0.00 | 0.00 | 58 | 1010.6 |
| 20260507180057 | 54 | 198 | 6.0 | 15.0 | 0.00 | 0.00 | 0.00 | 58 | 1010.7 |
| 20260507174605 | 54 | 223 | 6.0 | 14.0 | 0.00 | 0.00 | 0.00 | 60 | 1010.6 |
| 20260507173057 | 54 | 195 | 8.0 | 18.0 | 0.00 | 0.00 | 0.00 | 61 | 1010.6 |
| 20260507171604 | 55 | 176 | 10.0 | 16.0 | 0.00 | 0.00 | 0.00 | 59 | 1010.6 |
| 20260507170040 | 55 | 179 | 8.0 | 18.0 | 0.00 | 0.00 | 0.00 | 59 | 1010.6 |
| 20260507164550 | 55 | 193 | 10.0 | 17.0 | 0.00 | 0.00 | 0.00 | 60 | 1010.5 |
| 20260507163031 | 55 | 184 | 8.0 | 17.0 | 0.00 | 0.00 | 0.00 | 61 | 1010.5 |
| 20260507161539 | 55 | 186 | 8.0 | 19.0 | 0.00 | 0.00 | 0.00 | 61 | 1010.6 |
| 20260507160032 | 56 | 228 | 9.0 | 18.0 | 0.00 | 0.00 | 0.00 | 61 | 1010.5 |
| 20260507154519 | 55 | 226 | 9.0 | 18.0 | 0.00 | 0.00 | 0.00 | 60 | 1010.5 |
| 20260507153015 | 56 | 186 | 12.0 | 20.0 | 0.00 | 0.00 | 0.00 | 60 | 1010.4 |
| 20260507151517 | 55 | 163 | 13.0 | 20.0 | 0.00 | 0.00 | 0.00 | 60 | 1010.3 |
| 20260507150006 | 55 | 191 | 14.0 | 21.0 | 0.00 | 0.00 | 0.00 | 60 | 1010.3 |
| 20260507144501 | 56 | 241 | 15.0 | 23.0 | 0.00 | 0.00 | 0.00 | 61 | 1010.4 |
| 20260507143104 | 56 | 151 | 14.0 | 21.0 | 0.00 | 0.00 | 0.00 | 60 | 1010.4 |
| 20260507141556 | 56 | 149 | 14.0 | 25.0 | 0.00 | 0.00 | 0.00 | 60 | 1010.4 |
| 20260507140048 | 56 | 176 | 13.0 | 21.0 | 0.00 | 0.00 | 0.00 | 60 | 1010.4 |
| 20260507134552 | 56 | 145 | 12.0 | 22.0 | 0.00 | 0.00 | 0.00 | 60 | 1010.5 |
| 20260507133039 | 56 | 129 | 11.0 | 19.0 | 0.00 | 0.00 | 0.00 | 60 | 1010.4 |
| 20260507131539 | 56 | 163 | 11.0 | 19.0 | 0.00 | 0.00 | 0.00 | 61 | 1010.5 |
| 20260507130033 | 55 | 132 | 12.0 | 18.0 | 0.00 | 0.00 | 0.00 | 61 | 1010.6 |
| 20260507124526 | 55 | 180 | 6.0 | 21.0 | 0.00 | 0.00 | 0.00 | 61 | 1010.6 |
| 20260507123022 | 56 | 198 | 9.0 | 19.0 | 0.00 | 0.00 | 0.00 | 61 | 1010.7 |
| 20260507121518 | 55 | 177 | 11.0 | 17.0 | 0.00 | 0.00 | 0.00 | 61 | 1010.8 |
| 20260507120014 | 55 | 165 | 12.0 | 17.0 | 0.00 | 0.00 | 0.00 | 60 | 1010.8 |
| 20260507114520 | 56 | 176 | 9.0 | 15.0 | 0.00 | 0.00 | 0.00 | 60 | 1010.8 |
| 20260507113006 | 55 | 132 | 10.0 | 18.0 | 0.00 | 0.00 | 0.00 | 60 | 1010.8 |
| 20260507111501 | 54 | 149 | 10.0 | 19.0 | 0.00 | 0.00 | 0.00 | 59 | 1010.9 |
| 20260507110110 | 54 | 146 | 9.0 | 16.0 | 0.00 | 0.00 | 0.00 | 55 | 1010.9 |
| 20260507104552 | 54 | 189 | 10.0 | 15.0 | 0.00 | 0.00 | 0.00 | 55 | 1010.9 |
| 20260507103054 | 54 | 145 | 8.0 | 15.0 | 0.00 | 0.00 | 0.00 | 36 | 1010.9 |
| 20260507101548 | 53 | 242 | 5.0 | 8.0 | 0.00 | 0.00 | 0.00 | 10 | 1010.9 |
| 20260507100040 | 52 | 173 | 6.0 | 11.0 | 0.00 | 0.00 | 0.00 | 38 | 1011.0 |
| 20260507094536 | 54 | 141 | 9.0 | 15.0 | 0.00 | 0.00 | 0.00 | 23 | 1010.9 |
| 20260507093030 | 53 | 168 | 6.0 | 10.0 | 0.00 | 0.00 | 0.00 | 22 | 1010.8 |
| 20260507091526 | 54 | 176 | 3.0 | 10.0 | 0.00 | 0.00 | 0.00 | 29 | 1010.8 |
| 20260507090034 | 53 | 145 | 6.0 | 9.0 | 0.00 | 0.00 | 0.00 | 22 | 1010.9 |
| 20260507084531 | 52 | 178 | 8.0 | 14.0 | 0.00 | 0.00 | 0.00 | 35 | 1010.9 |
| 20260507083013 | 53 | 160 | 6.0 | 14.0 | 0.00 | 0.00 | 0.00 | 56 | 1010.9 |
| 20260507081513 | 53 | 163 | 11.0 | 15.0 | 0.00 | 0.00 | 0.00 | 59 | 1010.9 |